sat.trackr.live / text

‹ back to catalog

STARLINK-31755

NORAD 59607 · 2024-080G

PAYLOAD ACTIVE UNKNOWN

§ Identity

Operator
Country
US
Launch date
2024-04-28
Launch site
AFETR
Launch vehicle
Mass (kg)
RCS (m²)

Purposes: comms

External: N2YO · Heavens-Above · Gunter

§ Orbital elements

Epoch: 2026-09-21T08:47:29.175360Z

Period
94.27 min
Inclination
43.0060°
Eccentricity
0.0001739
Mean motion
15.27575682 rev/d
Perigee alt
481.9 km
Apogee alt
484.3 km
Semi-major
6,861.2 km
B*
3.7580e-5
RAAN
16.7396°
Arg perigee
280.9092°
Mean anomaly
79.1564°
Rev number
13,441

§ Raw data

STARLINK-317551 59607U 24080G   26264.36630990  .00000772  00000+0  37580-4 0  99992 59607  43.0060  16.7396 0001739 280.9092  79.1564 15.27575682134417

JSON: /api/v1/satellites/59607 · /tle

For live sub-satellite position, see the globe view (requires WebGL).

§ Visibility from observer

Set your observer location to see the next 7 days of passes ≥ 10°. The values pass through the URL so the page stays shareable.

No JS? Fill the form by hand. The geolocation button needs JavaScript.